STARLINK-11250, 60910

Orbit data source: Space-Track

STARLINK-11250, 60910 is a payload satellite owned by SpaceX/Seattle (US) in LEO that was launched on Sat, 31 Aug 2024 UTC via an FALCON 9 launch vehicle from the Air Force Eastern Test Range (AFETR). Payload-class satellites include a variety of spacecraft equipped with specific instruments for various scientific and technological missions. These include communications satellites like Starlink; space stations such as the ISS; scientific satellites like the Hubble; Earth observation satellites from companies like Planet Labs, Umbra, and HawkEye 360; GPS; miniature CubeSats for education and research; and military/defense satellites.

Loading next visibility...
Identifier
60910, 2024-154H
Orbit
LEO
Country
Flag of USUS
Related business
Manufacturer
SpaceX/Seattle
Mission
Operational Commercial Communications
Bus & Motor
STARLINK V2MD, Unknown motor
Mass
960 kg wet, ~910 kg dry
Launch date (UTC)
2024-08-31 (2 years ago)
Launch vehicle
FALCON 9
Launch site
Air Force Eastern Test Range (AFETR)
Object type
Payload
Rocket body
Debris
Shape & HBR
Box + 2 Pan, 18.1 m
Radar Cross Section
36.964 m², Large (>1 m²)

Expand to show TLE details & history
Last TLE update: 1 day ago

TLE from 1 day ago
0 STARLINK-11250
1 60910U 24154H   26174.82886901  .00000377  00000-0  79666-5 0  9990
2 60910  53.1591 328.1161 0000957  83.7061 276.4065 15.69707143105188
Epoch: 2026-06-23T19:53Z
TLE epoch observation values (Epoch: 2026-06-23T19:53:34.282Z)
Latitude
-0.00009°
Longitude
117.72836°
Altitude
360.578 km
Speed
7.694 km/s
True Right ascension
21h 52m 27s
True Declination
0° 00' 00"
Sunlit
Object was in full shadow at epoch
Visualization orbit readout
Latitude
Unknown
Longitude
Unknown
Altitude
Unknown
Speed
Unknown
Apparent Right ascension
Unknown
Apparent Declination
Unknown
Sunlit
N/A
Visualization observer readout
Local Sidereal Time
18:28:05
Azimuth
Unknown
Elevation
Unknown
Doppler factor
Unknown
Orbital elements
Apogee altitude
360.641 km
Perigee altitude
359.351 km
Semi-major axis
6,738.133 km
Eccentricity
0.0001
Inclination
53.1591°
RAAN
328.1161°
Arg. of periapsis
83.7061°
True anomaly
276.3956°
Mean anomaly
276.4065°
Eccentric anomaly
276.40105°
Mean motion
3.92404 °/min
Orbital period
91.74 mins
BSTAR
0.0000079666
Loading maneuver chart data...
Computing Atmospheric mass density...
Loading historical data...
Loading historical data...
Loading historical data...
Loading historical data...
Loading historical data...
Loading historical data...
Loading historical data...

Documentation

Showing up to 5 results
|